Tracking 28790 objects as of 19-Apr-2024
HD Live streaming from Space Station
objects crossing your sky now

FENGYUN 1C DEB

Track FENGYUN 1C DEB now!
10-day predictions


NORAD ID: 31899
Int'l Code: 1999-025CLA
Perigee: 831.3 km
Apogee: 1,115.5 km
Inclination: 102.1 °
Period: 104.4 minutes
Semi major axis: 7344 km
RCS: 0.0071 m2 (small)
Launch date: May 10, 1999
Source: People's Republic of China (PRC)
Launch site: Taiyaun Space Center, China (TSC)

Note: This is SATELLITE DEBRIS
Your satellite tracking list
Your tracking list is empty




NASA's NSSDC Master Catalog

Two Line Element Set (TLE):
1 31899U 99025CLA 24109.51971808  .00002724  00000-0  23607-2 0  9995
2 31899 102.0822 359.0979 0193473 154.0677 207.0315 13.79318284592343
Source of the keplerian elements: AFSPC